This is the latest recevied weather packets stored in our database for station/object N8TWM-13. If no packets are shown the sender has not sent any weather packets the latest 10 day(s).
| Time | Temp. | Humidity | Pressure | Rain* | Wind** | Luminosity | Snow |
|---|---|---|---|---|---|---|---|
| 1777509699 | 8.33° C | 94% | 1011.3 hPa | 1.78 mm | - | 0 W/m² | - |
| 1777509396 | 8.89° C | 93% | 1011.5 hPa | 1.78 mm | - | 0 W/m² | - |
| 1777509093 | 8.89° C | 93% | 1011.8 hPa | 1.27 mm | - | 0 W/m² | - |
| 1777508790 | 8.89° C | 93% | 1011.7 hPa | 3.05 mm | - | 0 W/m² | - |
| 1777508487 | 8.89° C | 93% | 1011.5 hPa | 1.78 mm | - | 0 W/m² | - |
| 1777508185 | 8.89° C | 93% | 1011.3 hPa | 0 mm | - | 0 W/m² | - |
| 1777507881 | 8.89° C | 93% | 1011.4 hPa | 0 mm | - | 0 W/m² | - |
| 1777507578 | 8.89° C | 93% | 1011.4 hPa | 0 mm | - | 0 W/m² | - |
| 1777507275 | 8.89° C | 93% | 1010.9 hPa | 0 mm | - | 0 W/m² | - |
| 1777506973 | 8.89° C | 93% | 1011 hPa | 0 mm | - | 1 W/m² | - |
| 1777506670 | 8.89° C | 93% | 1010.7 hPa | 0 mm | - | 4 W/m² | - |
| 1777506366 | 8.89° C | 93% | 1010.6 hPa | 0 mm | - | 8 W/m² | - |
| 1777506062 | 8.89° C | 93% | 1010.9 hPa | 0 mm | - | 5 W/m² | - |
| 1777505756 | 8.89° C | 93% | 1010.8 hPa | 0 mm | - | 5 W/m² | - |
| 1777505455 | 8.89° C | 93% | 1010.9 hPa | 0 mm | - | 6 W/m² | - |
| 1777505151 | 8.89° C | 93% | 1010.7 hPa | 0 mm | - | 8 W/m² | - |
| 1777504848 | 8.89° C | 93% | 1010.7 hPa | 0 mm | - | 7 W/m² | - |
| 1777504545 | 8.89° C | 93% | 1010.7 hPa | 0 mm | - | 4 W/m² | - |
| 1777504241 | 8.89° C | 93% | 1010.8 hPa | 0 mm | - | 7 W/m² | - |
| 1777503937 | 8.89° C | 93% | 1010.6 hPa | 0 mm | - | 8 W/m² | - |
| 1777503633 | 8.89° C | 93% | 1010.7 hPa | 0 mm | - | 5 W/m² | - |
| 1777503330 | 8.89° C | 93% | 1010.6 hPa | 0 mm | - | 8 W/m² | - |
| 1777503026 | 8.89° C | 93% | 1010.5 hPa | 0 mm | - | 17 W/m² | - |
| 1777502724 | 8.89° C | 93% | 1010.6 hPa | 0 mm | - | 19 W/m² | - |
| 1777502421 | 8.89° C | 93% | 1010.5 hPa | 0 mm | - | 15 W/m² | - |
* Rain latest hour (hover to see other rain measurements)
** Current wind speed in m/s (hover to see current wind gust speed)